Regional Weather Roundup
Issued by NWS Midland/Odessa, TX

Home | Current Version | Previous Version | Text Only | Print | Product List | Glossary On
Versions: 1 2 3 4 5 6 7 8 9 10 11 12 13 14 15 16 17 18 19 20 21 22 23 24 25 26 27 28 29 30 31 32 33 34 35 36 37 38 39 40 41 42 43 44 45 46 47 48 49 50
000
ASUS44 KMAF 021910
RWRMAF
MIDLAND AREA WEATHER ROUNDUP
NATIONAL WEATHER SERVICE MIDLAND TX
200 PM CDT THU JUL 02 2015

...IN SOUTHWEST TEXAS AND SOUTHEAST NEW MEXICO...

CITY           SKY/WX    TMP DP  RH WIND       PRES   REMARKS
ALPINE         SUNNY     91  57  32 E15       30.11
ANDREWS        FAIR      85  62  45 SE9G17    30.02
ARTESIA        MOSUNNY   90  63  40 S9        30.03F
BIG SPRING     PTSUNNY   84  63  48 S12       30.02
CARLSBAD       SUNNY     90  61  37 SE6       30.00F
DRYDEN           N/A     88  66  48 SE9G21    29.96F
FORT STOCKTON  SUNNY     88  63  43 E10       29.99S
GUAD PASS      MOSUNNY   83  58  42 E16G30    30.16F
HOBBS          SUNNY     86  59  39 SE8       30.04F
MARFA          PTSUNNY  N/A N/A N/A NE9       30.10F
MIDLAND AIRPK  MOSUNNY   85  63  47 SE9       30.01
MIDLAND INTL   MOSUNNY   83  64  52 SE6       30.00F
ODESSA         MOSUNNY   84  63  49 SE10      30.01F
PECOS          SUNNY     89  60  37 N10G16    29.97
PRESIDIO       NOT AVBL
SEMINOLE       MOSUNNY   89  55  31 CALM      30.02
SNYDER         MOSUNNY   82  67  59 S8        30.02
WINK           MOSUNNY   88  62  41 E13G18    29.97F
$$
...OTHER STATIONS IN TEXAS...

CITY           SKY/WX    TMP DP  RH WIND       PRES   REMARKS
ABILENE        MOSUNNY   88  67  49 SW14G21   29.99F
AMARILLO       CLOUDY    81  63  54 NE7       30.06R
AUSTIN         MOSUNNY   87  72  60 S16G22    30.00F
BROWNSVILLE    PTSUNNY   85  72  65 SE12      30.00F
CORPUS CHRISTI PTSUNNY   86  75  69 SE16      30.00F
DALLAS FTW     PTSUNNY   90  66  45 S17G26    29.95F
DEL RIO        MOSUNNY   85  68  56 SE17      29.95F
EL PASO        MOSUNNY   95  51  22 VRB3      29.99F
HOUSTON INT    PTSUNNY   91  72  53 S9        30.01F
LUBBOCK        PTSUNNY   90  63  40 SE8       30.01F
SAN ANGELO     SUNNY     86  65  49 S14       29.98F
SAN ANTONIO    PTSUNNY   88  71  57 S16       30.00F
WACO           MOSUNNY   89  68  49 S20G25    29.99F
WICHITA FALLS  NOT AVBL
$$
...OTHER LOCATIONS IN NEW MEXICO...

CITY           SKY/WX    TMP DP  RH WIND       PRES   REMARKS
ALAMAGORDO     MOSUNNY   93  48  21 SE6       30.02F
ALBUQUERQUE    MOSUNNY   90  49  24 NW8       30.11F
CANNON AFB     MOSUNNY   85  61  45 VRB2      30.07F
CLOVIS         MOSUNNY   84  61  45 E5          N/A
HOLLOMAN AFB   MOSUNNY   95  50  22 SE7       29.99F
ROSWELL        MOSUNNY   90  61  37 S8        30.02F
RUIDOSO        MOSUNNY   81  48  32 SE9       30.26F
SANTA FE       MOSUNNY   85  49  28 N14       30.17F
TRUTH OR CONSE SUNNY     92  48  22 MISG      30.06F
TUCUMCARI      PTSUNNY   86  58  38 MISG      30.07R
$$


USA.gov is the U.S. government's official web portal to all federal, state and local government web resources and services.